Lapse_Rate
6.0 6.5 6.5 6.5 6.5 6.5 6.5 6.5 6.5 6.5 6.5 6.5 6.5 6.5 6.5 5.9 5.3 5.5 4.0 2.9 2.4 1.6 1.5 0.7 -0.4 -1.5 -2.6 -2.4 -2.2 -1.8 -1.4 -1.6 -0.3 0.5 1.4 2.1 2.8 4.5 4.8 4.6 4.0 4.1 4.5 4.0
6.5 6.5 6.5 6.5 6.5 6.5 6.5 6.5 6.5 6.5 6.5 6.5 6.5 6.5 6.5 6.5 6.4 4.8 4.7 3.2 2.5 2.2 2.4 1.7 -0.2 -2.1 -2.8 -2.0 -1.8 -0.8 -1.1 -0.8 -0.1 0.9 1.2 1.6 2.1 3.7 4.3 4.3 4.4 4.5 4.6 4.0
6.5 6.5 6.5 6.5 6.5 6.5 6.5 6.5 6.5 6.5 6.5 6.5 6.5 6.5 6.5 6.5 6.1 4.8 3.8 3.1 3.5 2.8 2.9 3.0 1.0 -1.2 -2.2 -2.5 -1.5 -1.6 -1.0 -0.2 0.2 0.6 0.5 0.5 1.1 2.3 3.7 4.2 4.4 4.6 5.0 4.8
6.5 6.5 6.5 6.5 6.5 6.5 6.5 6.5 6.5 6.5 6.5 6.5 6.5 6.5 6.5 6.5 6.5 6.5 5.5 3.8 3.0 3.4 4.9 3.5 2.2 -0.7 -1.7 -2.6 -0.3 -1.0 0.4 0.2 0.4 -0.1 0.5 1.3 1.4 2.0 2.6 4.5 4.2 4.0 4.6 4.7
6.5 6.5 6.5 6.5 6.5 6.5 6.5 6.5 6.5 6.5 6.5 6.5 6.5 6.5 6.5 6.5 6.5 6.5 6.5 4.7 4.3 4.6 5.4 4.6 3.3 0.8 -0.9 -0.5 -0.1 -0.5 1.7 1.7 0.7 0.1 1.0 1.5 3.0 3.1 2.3 3.2 4.0 4.1 3.4 4.4
6.5 6.4 6.5 6.5 6.5 6.5 6.5 6.5 6.5 6.5 6.5 6.5 6.5 6.5 6.5 6.5 6.5 6.5 6.5 5.7 5.6 5.6 5.8 5.7 5.4 1.9 -0.1 0.3 -0.2 1.8 2.0 1.4 1.3 0.9 1.1 1.1 1.7 2.2 4.2 4.2 4.4 4.3 4.2 4.4
6.5 6.5 6.5 6.5 6.5 6.5 6.5 6.5 6.5 6.5 6.5 6.5 6.5 6.5 6.5 6.5 6.5 6.5 6.5 5.9 5.9 6.3 6.3 6.3 6.3 3.1 1.1 0.1 -0.2 2.2 2.1 0.7 1.0 0.8 1.1 0.5 1.4 2.8 3.3 4.2 4.3 4.5 4.3 3.8
6.5 6.5 6.5 6.5 6.5 6.5 6.5 6.5 6.5 6.5 6.5 6.5 6.5 6.5 6.5 6.5 6.4 6.3 6.4 6.5 5.8 5.0 6.3 6.6 6.8 5.5 2.6 0.7 0.2 1.9 2.0 1.4 0.8 1.2 1.4 0.9 1.5 3.1 3.3 3.9 4.3 4.6 4.4 3.6
6.5 6.5 6.5 6.5 6.5 6.5 6.5 6.5 6.5 6.5 6.5 6.5 6.5 6.5 6.5 6.5 6.5 6.5 6.3 6.3 6.1 6.5 6.7 7.1 7.0 5.6 3.5 1.4 0.7 0.6 3.5 2.2 1.1 1.3 1.5 1.1 1.9 3.0 4.1 4.0 4.2 4.9 4.7 4.4
6.5 6.5 6.5 6.5 6.5 6.5 6.5 6.5 6.5 6.5 6.5 6.5 6.5 6.5 6.5 6.5 6.5 6.5 6.5 6.3 6.6 6.2 5.9 6.9 7.4 4.9 4.9 4.8 3.9 5.7 5.3 1.9 1.0 1.0 1.6 0.9 1.7 2.5 2.5 3.2 3.1 4.0 4.3 4.5
6.5 6.5 6.5 6.5 6.5 6.5 6.5 6.5 6.5 6.5 6.5 6.5 6.5 6.5 6.5 6.5 6.5 6.5 6.5 6.4 6.4 5.4 6.2 6.8 7.2 6.5 5.1 4.9 4.6 5.6 5.9 3.7 1.7 1.0 1.7 0.9 1.6 2.3 2.3 3.2 3.4 2.7 4.3 4.2
6.5 6.5 6.5 6.5 6.5 6.5 6.5 6.5 6.5 6.5 6.5 6.5 6.5 6.5 6.5 6.5 6.5 6.5 6.5 6.6 6.3 6.5 6.8 7.3 7.4 7.4 5.0 4.2 4.8 5.3 6.1 4.6 2.6 1.5 1.2 0.7 1.8 2.2 2.1 2.7 3.2 3.4 2.7 4.3
6.5 6.5 6.5 6.5 6.5 6.5 6.5 6.5 6.5 6.5 6.5 6.5 6.5 6.5 6.5 6.5 6.5 6.3 6.4 6.2 6.0 6.3 6.7 6.6 5.9 6.7 4.7 5.2 5.7 6.0 5.8 5.4 4.4 3.3 1.7 1.5 2.4 2.5 2.4 2.3 2.7 3.2 2.9 3.3
6.6 6.5 6.5 6.5 6.5 6.5 6.5 6.5 6.5 6.5 6.5 6.5 6.5 6.5 6.5 6.5 6.5 6.5 6.2 5.8 6.5 6.8 7.2 6.9 6.2 6.7 5.6 6.0 6.0 5.6 5.2 5.4 4.5 5.0 3.2 2.0 2.5 2.6 3.0 2.7 2.8 3.2 3.5 3.6
6.5 6.5 6.5 6.5 6.5 6.5 6.5 6.5 6.5 6.5 6.5 6.5 6.5 6.5 6.5 6.5 6.5 6.5 6.8 6.7 6.9 7.1 7.1 7.4 6.1 5.3 5.9 6.1 5.7 5.6 4.7 5.0 5.0 4.6 4.9 4.1 2.1 2.4 3.0 3.1 3.1 3.1 3.6 4.0
6.5 6.5 6.5 6.5 6.5 6.5 6.5 6.5 6.5 6.5 6.5 6.5 6.5 6.5 6.5 6.4 6.1 6.7 6.9 7.0 6.9 7.0 7.1 7.3 6.8 5.1 4.3 4.1 5.7 5.1 4.4 4.2 5.2 5.0 5.2 5.0 4.8 3.6 3.3 3.5 3.4 3.5 4.1 4.1
6.5 6.5 6.5 6.5 6.5 6.5 6.5 6.5 6.5 6.5 6.5 6.5 6.5 6.5 6.5 6.5 6.5 6.6 6.8 7.0 7.0 7.1 7.1 7.1 6.9 5.1 4.2 3.6 2.7 4.6 5.2 4.9 4.7 5.0 5.3 5.2 5.2 5.1 3.9 3.9 4.4 5.0 4.9 4.7
6.5 6.5 6.5 6.5 6.5 6.5 6.5 6.5 6.5 6.5 6.5 6.5 6.5 6.5 6.5 6.5 6.9 7.2 7.3 7.1 7.1 7.1 6.7 6.4 6.1 5.0 4.4 3.7 2.1 2.8 4.7 5.2 4.8 4.8 5.1 4.9 4.9 5.1 5.5 5.0 5.4 5.9 5.7 5.2
6.5 6.5 6.5 6.5 6.5 6.5 6.5 6.5 6.5 6.5 6.5 6.5 6.5 6.5 6.5 6.5 7.0 6.9 7.4 7.5 7.3 6.8 6.3 5.8 5.0 4.2 3.0 2.5 2.6 2.8 1.6 2.2 2.6 2.4 3.0 2.9 4.4 5.3 5.1 5.2 5.4 5.7 5.4 5.3
6.5 6.5 6.5 6.5 6.5 6.5 6.5 6.5 6.4 6.5 6.5 6.5 6.5 6.5 6.5 6.4 6.5 6.5 7.3 7.1 7.1 5.9 5.4 5.2 4.4 4.0 2.9 3.7 3.5 0.6 -0.1 -0.2 0.0 -0.2 -0.1 0.5 0.6 1.8 3.4 5.3 5.1 5.2 5.4 5.0
6.5 6.5 6.5 6.5 6.5 6.5 6.5 6.5 6.4 6.5 6.5 6.4 6.6 6.8 6.7 6.5 6.6 7.0 7.1 7.0 6.0 5.3 5.2 5.0 4.5 3.9 3.4 3.1 3.0 0.8 0.2 -0.9 -0.5 -0.7 -1.4 -1.9 -2.0 -1.2 -1.1 0.1 3.4 4.6 4.1 2.5
6.5 6.5 6.5 6.5 6.5 6.5 6.5 6.4 6.5 6.5 6.1 6.3 6.8 6.7 6.9 7.1 7.3 7.3 7.2 6.4 5.4 4.1 4.5 4.2 3.1 3.6 2.7 2.1 2.1 1.1 0.3 0.6 -0.0 -0.8 -1.4 -1.8 -2.1 -2.1 -1.8 -2.3 -2.7 -2.6 -2.3 -3.3
6.5 6.5 6.5 6.5 6.5 6.6 6.9 6.7 6.0 5.4 6.3 6.8 6.4 6.7 7.0 7.2 7.3 7.2 6.9 6.2 4.6 3.5 3.5 3.5 3.0 3.1 3.2 2.5 1.8 1.2 0.9 0.2 -0.4 -1.2 -1.9 -1.9 -2.1 -2.2 -2.3 -2.3 -2.4 -2.4 -3.0 -3.6
6.5 6.7 6.5 6.5 6.5 6.5 6.9 6.9 6.5 6.0 6.1 6.1 5.9 6.4 7.5 6.7 6.6 6.8 6.2 5.5 4.6 3.7 3.2 3.2 2.6 1.6 2.0 2.2 1.2 1.3 2.0 1.5 0.3 -0.5 -1.1 -0.8 -1.4 -1.5 -1.4 -1.2 -0.9 -0.6 -0.5 -1.0
6.6 6.6 6.5 6.5 6.5 6.8 6.9 6.7 6.2 6.1 6.2 6.2 5.7 5.6 6.4 6.6 5.6 5.5 5.5 5.1 4.8 4.3 4.0 3.2 1.9 1.7 1.7 1.2 0.9 -0.4 -0.5 0.8 1.0 0.7 0.7 0.3 0.6 0.4 -0.1 -0.3 0.8 0.7 0.8 1.1
6.9 6.5 6.5 6.5 6.8 6.8 7.0 6.6 6.5 4.7 4.9 5.0 5.1 6.1 5.3 5.3 5.4 5.2 4.3 4.4 4.3 4.2 3.9 3.5 3.3 2.2 1.6 0.9 0.4 0.1 -0.4 -0.3 0.3 0.9 0.8 1.2 1.4 2.0 2.4 2.2 2.6 4.0 3.3 3.1
Wind_Speed
5 5 11 8 9 5 2 5 5 2 3 3 7 14 6 9 8 8 8 9 9 10 10 8 7 7 7 8 13 16 16 13 10 7 7 4 5 6 6 7 9 12 11 15
3 18 8 8 7 6 6 6 5 4 6 5 8 25 9 7 8 9 11 8 10 8 10 7 6 5 9 12 12 15 16 15 11 9 6 3 3 2 2 2 5 10 11 14
7 3 11 12 7 9 6 9 4 8 4 3 5 18 9 7 5 7 7 8 6 9 11 11 7 8 7 12 16 18 16 17 13 11 6 3 4 1 2 2 2 5 10 12
7 7 5 7 8 7 10 8 9 6 2 3 4 8 0 6 6 3 8 7 7 9 15 11 8 8 13 13 13 14 13 16 13 13 10 12 6 5 3 3 2 3 5 9
6 3 7 10 6 8 6 8 8 6 5 1 3 4 5 3 7 9 7 8 8 9 13 14 11 15 9 10 12 12 13 12 13 13 12 10 10 4 3 3 5 5 3 4
5 2 3 7 5 8 5 3 3 2 3 3 8 7 3 4 2 3 3 7 8 10 15 15 15 6 9 10 12 13 14 12 11 14 14 13 11 9 6 5 5 4 3 5
0 10 2 3 3 2 3 5 1 1 1 5 6 5 8 5 4 5 6 8 8 11 14 17 16 7 11 15 16 15 16 14 13 13 11 9 9 9 9 8 6 6 4 3
6 2 10 7 12 8 7 7 5 5 4 3 4 6 5 4 5 4 1 3 5 16 17 19 18 11 14 17 18 18 17 16 15 12 11 9 8 6 6 8 6 5 5 5
3 3 2 3 5 12 5 5 7 2 1 1 4 6 5 4 5 6 7 9 12 17 22 23 23 13 16 17 19 18 20 15 15 13 12 10 9 8 8 7 6 5 6 5
2 1 3 2 4 4 6 5 3 1 3 5 4 3 5 2 5 6 7 10 13 19 25 24 22 6 8 11 12 13 19 16 15 13 13 9 9 8 7 7 7 8 7 7
6 2 6 6 2 2 3 2 4 4 5 4 7 5 5 4 4 5 1 5 10 18 26 23 18 9 9 11 13 14 17 17 15 13 12 11 9 8 8 8 8 9 9 8
2 1 2 6 3 3 3 2 6 3 3 2 2 11 5 5 8 6 4 2 6 13 22 23 18 13 12 13 13 14 17 15 12 12 11 10 10 9 9 8 8 9 10 10
5 2 1 5 3 3 4 2 1 2 2 5 4 5 3 6 5 5 4 4 6 13 21 20 22 8 11 11 11 16 11 11 10 10 10 9 9 10 10 9 7 8 9 10
1 1 2 4 3 4 4 3 2 1 2 3 4 4 6 7 7 10 7 7 4 11 15 16 18 3 6 7 10 10 10 10 10 10 10 10 9 9 8 7 8 8 9 11
2 1 2 4 5 9 5 3 2 1 2 4 3 3 2 5 7 9 10 10 8 10 14 16 16 15 7 6 9 10 11 10 10 10 9 9 8 9 8 8 8 7 7 9
4 3 2 3 4 10 8 8 4 8 7 10 6 4 1 3 5 12 10 13 11 12 13 15 15 16 16 14 2 9 10 10 10 8 7 7 9 7 8 9 9 9 9 9
2 2 2 1 2 7 5 5 2 4 3 2 4 3 7 5 9 12 12 12 12 13 14 15 16 16 16 14 12 8 7 9 10 9 8 8 8 11 10 10 10 11 11 10
5 4 1 3 4 2 4 4 8 10 5 6 5 6 7 3 8 10 11 10 11 13 16 16 13 13 13 14 14 12 3 8 7 7 7 8 9 10 11 12 13 12 11 12
12 2 2 1 1 5 2 2 1 3 0 4 5 6 7 6 9 11 14 13 11 11 11 12 12 14 14 16 13 10 13 13 12 11 9 8 5 7 10 11 11 11 10 11
6 4 3 0 1 3 2 1 5 2 2 0 4 5 5 11 3 4 13 13 13 12 12 12 13 13 13 13 11 13 13 13 13 11 10 9 9 6 6 9 10 9 10 10
2 1 6 2 1 6 3 7 3 2 2 4 5 6 9 5 5 7 11 12 13 12 13 11 11 11 13 12 12 13 13 14 11 11 10 11 11 9 9 7 3 7 7 3
3 3 3 3 3 6 8 4 1 2 6 7 9 8 8 8 9 9 10 11 13 14 13 13 12 12 13 14 12 12 13 10 10 11 11 11 11 9 8 9 8 9 8 9
1 3 2 4 2 5 6 6 6 7 6 6 9 8 7 9 8 10 10 11 11 12 11 11 10 11 11 12 12 12 11 10 10 11 11 11 11 10 10 10 10 7 9 9
3 3 3 4 4 9 8 8 10 11 11 10 10 10 10 9 9 9 9 10 9 8 9 10 11 12 12 12 12 11 11 10 10 11 12 11 12 13 12 10 9 8 7 7
4 5 5 4 5 5 9 8 9 11 10 11 11 12 12 9 10 10 9 10 9 8 9 10 10 10 11 11 12 12 12 10 9 10 11 11 10 13 15 16 10 10 11 9
3 4 3 2 5 4 4 7 10 12 11 11 11 10 12 11 9 9 9 9 9 9 10 9 10 10 10 12 11 11 11 10 8 9 9 8 9 9 10 12 16 31 28 30
Wind_Direction
191 189 213 191 202 212 199 224 220 183 233 346 258 270 250 277 287 271 265 263 271 268 263 279 273 241 159 169 171 175 172 167 158 167 172 180 194 203 198 193 179 176 177 163
144 234 211 196 211 211 206 233 244 264 244 264 286 280 278 241 247 252 265 261 259 284 295 287 265 199 184 180 184 178 178 167 168 172 171 155 161 196 198 155 169 176 179 168
199 206 194 184 192 206 195 213 167 245 323 293 286 284 249 257 239 249 258 254 265 262 287 288 243 211 192 189 194 185 177 166 167 160 143 107 91 117 168 162 175 178 182 179
233 234 146 180 217 174 228 179 202 230 141 248 132 290 104 225 247 266 280 269 296 318 315 273 252 211 206 204 190 177 173 166 164 156 165 181 191 177 179 157 151 161 168 180
222 199 202 212 191 171 216 178 190 209 186 142 165 280 288 16 300 280 297 323 334 318 317 315 264 230 203 180 180 165 164 173 165 170 177 182 195 186 138 153 176 178 172 196
213 359 146 183 185 167 176 151 153 82 124 258 180 185 204 199 201 336 341 346 337 328 329 322 316 206 183 172 162 171 166 172 176 180 181 180 177 161 160 162 174 162 168 182
74 245 238 143 101 114 157 94 193 234 198 235 190 180 258 284 333 64 12 344 337 324 325 324 330 220 185 183 172 176 172 172 177 178 176 175 170 160 168 184 178 159 164 181
179 232 171 198 197 186 184 164 172 200 195 242 164 234 247 135 102 76 284 271 323 350 336 328 319 263 204 194 178 177 177 174 171 172 177 178 167 164 170 180 173 166 164 159
136 278 206 192 174 171 194 181 187 259 211 320 220 282 292 146 22 32 10 358 347 348 338 327 323 291 204 194 187 178 182 177 171 171 184 177 169 165 172 166 158 151 138 144
299 360 260 64 115 220 188 174 99 63 209 241 237 248 234 342 336 346 356 357 343 347 338 323 323 265 197 179 180 189 188 176 169 167 187 172 169 160 153 152 157 149 139 144
351 109 295 23 13 133 103 223 201 169 161 239 282 261 200 172 225 242 342 3 349 354 332 313 319 265 179 174 179 185 188 180 170 166 183 173 166 165 156 167 169 154 148 150
10 13 252 237 255 184 159 214 174 170 205 219 241 267 170 203 219 193 189 124 348 12 319 305 311 262 181 178 177 186 186 180 173 165 173 174 167 167 163 171 178 166 151 161
347 356 46 328 16 15 107 106 19 116 94 214 184 266 246 16 331 160 239 314 32 12 317 321 332 194 176 176 184 189 167 169 169 169 169 170 175 174 175 170 170 173 160 158
329 5 303 178 223 318 300 139 85 120 148 173 224 285 2 0 1 336 311 275 26 14 327 338 350 89 132 172 181 171 159 161 167 182 180 174 177 176 181 170 172 174 177 170
303 233 273 245 349 311 234 279 59 144 287 188 242 303 24 328 340 342 14 12 31 3 356 349 4 14 20 149 160 156 155 164 165 178 181 184 173 171 172 173 176 174 177 184
303 8 290 295 89 290 284 207 196 271 214 262 254 279 273 310 355 29 22 26 16 7 357 357 9 14 12 5 310 157 161 164 169 173 178 177 172 174 177 179 177 181 185 187
267 246 265 304 81 313 267 222 173 106 40 246 245 15 342 5 23 34 22 25 12 3 7 5 358 9 6 4 356 4 164 153 170 175 181 185 181 186 186 183 183 192 194 194
277 345 350 303 20 214 273 21 132 98 59 28 63 1 355 9 83 49 28 17 16 7 6 7 2 3 1 358 12 354 353 172 162 170 174 181 193 197 196 192 200 197 197 197
205 175 301 332 165 272 172 331 108 157 53 354 356 359 348 334 166 53 23 13 21 18 17 13 6 6 11 5 6 10 41 52 57 46 35 20 339 221 200 202 199 201 197 202
142 182 158 121 33 271 238 216 12 194 181 146 334 13 27 7 57 14 15 11 11 24 22 23 15 11 13 9 9 30 37 43 36 27 19 10 359 349 324 225 209 204 204 208
102 151 198 150 257 285 330 314 335 141 205 70 31 12 41 61 46 24 24 22 12 18 16 22 32 22 17 11 24 39 36 35 24 26 28 28 17 5 1 340 300 216 207 121
188 150 175 170 188 258 6 333 209 157 57 70 59 28 50 43 36 23 30 30 19 12 1 15 30 21 17 18 24 38 43 32 36 40 35 30 26 23 14 28 27 29 68 86
11 327 285 200 185 64 10 43 38 67 74 53 64 43 54 44 30 29 25 27 23 13 3 8 22 21 20 26 26 32 23 28 38 46 44 40 40 34 31 39 38 52 62 72
231 40 259 144 52 71 49 46 64 73 77 68 60 48 53 42 25 36 31 25 23 14 16 11 16 24 20 20 32 34 23 26 40 49 48 41 47 48 43 45 41 46 52 84
20 318 327 72 108 97 47 52 68 67 64 71 69 56 47 48 30 27 31 26 24 22 16 19 29 27 25 23 28 29 25 23 38 51 52 52 52 53 58 55 47 55 52 63
16 352 0 41 341 45 45 57 62 63 50 48 54 57 50 38 39 37 31 23 23 24 23 28 32 35 28 35 31 32 33 31 42 55 54 49 61 64 64 70 69 57 66 69